D1965 Weather Reports


time (UTC)temp
F
wind
direction
speed
knots
gust
knots
rain 1hr
in
rain 24hr
in
rain mn
in
humidity
%
barometer
mb
20260506051005 39 0 0.0 0.0 0.00 0.00 0.00 88 1014.4
20260506044504 39 0 0.0 0.0 0.00 0.00 0.00 86 1014.4
20260506044005 40 0 0.0 0.0 0.00 0.00 0.00 86 1014.4
20260506043505 40 0 0.0 0.0 0.00 0.00 0.00 85 1014.4
20260506043005 40 0 0.0 0.0 0.00 0.00 0.00 85 1014.3
20260506042504 40 6 0.0 1.7 0.00 0.00 0.00 85 1014.4
20260506042005 40 6 0.0 1.7 0.00 0.00 0.00 85 1014.5
20260506041504 40 6 0.0 1.7 0.00 0.00 0.00 85 1014.4
20260506041005 41 9 0.0 3.5 0.00 0.00 0.00 85 1014.6
20260506040005 41 20 0.0 1.7 0.00 0.00 0.00 84 1014.5
20260506035504 41 21 0.0 0.9 0.00 0.00 0.00 84 1014.6
20260506034504 41 21 0.0 1.7 0.00 0.00 0.00 84 1014.7
20260506033006 42 26 0.9 2.6 0.00 0.00 0.00 84 1014.8
20260506032504 42 29 0.9 2.6 0.00 0.00 0.00 84 1014.8
20260506032005 42 29 0.0 1.7 0.00 0.00 0.00 83 1014.9
20260506031504 42 29 0.0 2.6 0.00 0.00 0.00 83 1014.9
20260506030504 42 26 0.0 0.9 0.00 0.00 0.00 83 1014.9
20260506024504 43 20 0.9 3.5 0.00 0.00 0.00 82 1015.1
20260506024005 43 18 0.9 3.5 0.00 0.00 0.00 82 1015.1
20260506023504 43 12 0.0 2.6 0.00 0.00 0.00 82 1015.0
20260506023005 43 9 0.9 4.3 0.00 0.00 0.00 82 1015.0
20260506022504 43 10 0.9 4.3 0.00 0.00 0.00 82 1015.0
20260506022005 43 26 0.9 3.5 0.00 0.00 0.00 82 1015.1
20260506021504 43 35 1.7 4.3 0.00 0.00 0.00 81 1015.0
20260506021005 43 33 2.6 7.0 0.00 0.00 0.00 81 1015.0
20260506020504 43 31 1.7 7.0 0.00 0.00 0.00 81 1015.0
20260506020005 43 24 1.7 5.2 0.00 0.00 0.00 82 1015.1
20260506015504 43 28 2.6 5.2 0.00 0.00 0.00 82 1015.1
20260506014504 44 36 3.5 7.8 0.00 0.00 0.00 82 1015.2
20260506014005 44 30 2.6 5.2 0.00 0.00 0.00 82 1015.2
20260506013504 44 29 2.6 5.2 0.00 0.00 0.00 82 1015.1
20260506012504 44 34 1.7 7.0 0.00 0.00 0.00 85 1015.2
20260506012006 45 32 1.7 5.2 0.00 0.00 0.00 86 1015.3
20260506011503 45 25 1.7 4.3 0.00 0.00 0.00 86 1015.3
20260506011006 45 25 1.7 4.3 0.00 0.00 0.00 86 1015.3
20260506010503 45 27 1.7 5.2 0.00 0.00 0.00 86 1015.3
20260506010005 45 29 1.7 6.1 0.00 0.00 0.00 86 1015.1
20260506005504 45 26 1.7 6.1 0.00 0.00 0.00 86 1015.2
20260506005005 45 20 0.9 4.3 0.00 0.00 0.00 87 1015.3
20260506004504 45 17 0.0 3.5 0.00 0.00 0.00 88 1015.2
20260506004004 45 6 0.0 1.7 0.00 0.00 0.00 88 1015.2
20260506003504 45 6 0.0 1.7 0.00 0.00 0.00 88 1015.2
20260506003005 45 6 0.0 1.7 0.00 0.00 0.00 88 1015.2
20260506001504 46 0 0.0 0.0 0.00 0.00 0.00 88 1015.1
20260506000504 46 0 0.0 0.0 0.00 0.00 0.00 88 1015.1
20260506000005 46 0 0.0 0.0 0.00 0.00 0.00 89 1015.2
20260505235504 46 0 0.0 0.0 0.00 0.00 0.00 88 1015.1
20260505234504 46 0 0.0 0.0 0.00 0.00 0.00 88 1015.3
20260505234004 46 0 0.0 0.0 0.00 0.00 0.00 88 1015.2
20260505233504 46 0 0.0 0.0 0.00 0.00 0.00 88 1015.3
20260505233005 46 0 0.0 0.0 0.00 0.00 0.00 89 1015.3
20260505232503 47 0 0.0 0.0 0.00 0.00 0.00 88 1015.2
20260505232005 47 0 0.0 0.0 0.00 0.00 0.00 88 1015.4
20260505231504 47 0 0.0 0.0 0.00 0.00 0.00 88 1015.4
20260505231005 47 0 0.0 0.0 0.00 0.00 0.00 87 1015.5
20260505225504 47 0 0.0 0.0 0.00 0.00 0.00 88 1015.7
20260505225004 47 0 0.0 0.0 0.00 0.00 0.00 88 1015.6
20260505224504 47 0 0.0 0.0 0.00 0.00 0.00 88 1015.7
20260505224006 47 0 0.0 0.0 0.00 0.00 0.00 88 1015.7
20260505223504 47 0 0.0 0.0 0.00 0.00 0.00 88 1015.7
20260505223004 47 0 0.0 0.0 0.00 0.00 0.00 88 1015.7
20260505222504 47 0 0.0 0.0 0.00 0.00 0.00 88 1015.7
20260505222005 47 0 0.0 0.0 0.00 0.00 0.00 87 1015.8
20260505221005 47 0 0.0 0.0 0.00 0.00 0.00 87 1015.8
20260505220503 47 0 0.0 0.0 0.00 0.00 0.00 87 1015.8
20260505220004 47 0 0.0 0.0 0.00 0.00 0.00 86 1015.8
20260505215503 47 0 0.0 0.0 0.00 0.00 0.00 86 1015.9
20260505215007 47 0 0.0 0.0 0.00 0.00 0.00 85 1015.9
20260505214505 47 0 0.0 0.0 0.00 0.00 0.00 86 1016.0
20260505214006 47 0 0.0 0.0 0.00 0.00 0.00 86 1015.9
20260505213506 47 0 0.0 0.0 0.00 0.00 0.00 86 1015.9
20260505213006 48 0 0.0 0.0 0.00 0.00 0.00 86 1015.8
20260505212506 48 0 0.0 0.0 0.00 0.00 0.00 86 1015.8
20260505212006 48 0 0.0 0.0 0.00 0.00 0.00 86 1015.8
20260505211006 48 0 0.0 0.0 0.00 0.00 0.00 86 1015.9
20260505210505 48 0 0.0 0.0 0.00 0.00 0.00 86 1015.9
20260505210006 48 0 0.0 0.0 0.00 0.00 0.00 86 1015.9
20260505205505 48 0 0.0 0.0 0.00 0.00 0.00 85 1015.8
20260505205006 48 0 0.0 0.0 0.00 0.00 0.00 85 1015.8
20260505204505 49 0 0.0 0.0 0.00 0.00 0.00 84 1015.7
20260505204006 49 0 0.0 0.0 0.00 0.00 0.00 84 1015.7
20260505203505 49 0 0.0 0.0 0.00 0.00 0.00 84 1015.7
20260505203007 49 0 0.0 0.0 0.00 0.00 0.00 83 1015.7
20260505202505 49 0 0.0 0.0 0.00 0.00 0.00 83 1015.8
20260505202006 49 0 0.0 0.0 0.00 0.00 0.00 83 1015.7
20260505201506 49 0 0.0 0.0 0.00 0.00 0.00 83 1015.7
20260505200506 50 0 0.0 0.0 0.00 0.00 0.00 82 1015.7
20260505200006 50 0 0.0 0.0 0.00 0.00 0.00 82 1015.8
20260505195505 50 0 0.0 0.0 0.00 0.00 0.00 81 1015.7
20260505195006 50 0 0.0 0.0 0.00 0.00 0.00 81 1015.8
20260505194505 50 0 0.0 0.0 0.00 0.00 0.00 81 1015.6
20260505194006 50 0 0.0 0.0 0.00 0.00 0.00 81 1015.7
20260505193006 51 0 0.0 0.0 0.00 0.00 0.00 80 1015.6
20260505192505 51 0 0.0 0.0 0.00 0.00 0.00 80 1015.6
20260505192007 51 0 0.0 0.0 0.00 0.00 0.00 80 1015.6
20260505190006 51 0 0.0 0.0 0.00 0.00 0.00 77 1015.6
20260505185006 52 0 0.0 0.0 0.00 0.00 0.00 76 1015.5
20260505184505 52 0 0.0 0.0 0.00 0.00 0.00 75 1015.5
20260505184006 52 0 0.0 0.0 0.00 0.00 0.00 76 1015.5
20260505183505 52 42 0.0 0.9 0.00 0.00 0.00 75 1015.5
20260505183007 52 42 0.0 1.7 0.00 0.00 0.00 75 1015.5
20260505182505 53 41 0.9 2.6 0.00 0.00 0.00 75 1015.5
20260505182007 53 39 0.9 3.5 0.00 0.00 0.00 74 1015.5
20260505181505 53 40 0.9 3.5 0.00 0.00 0.00 73 1015.5
20260505181006 53 41 0.9 3.5 0.00 0.00 0.00 74 1015.5
20260505180506 53 38 0.9 3.5 0.00 0.00 0.00 74 1015.5
20260505180006 53 37 0.9 3.5 0.00 0.00 0.00 74 1015.6
20260505175005 53 54 0.9 3.5 0.00 0.00 0.00 73 1015.5
20260505174506 53 57 0.9 2.6 0.00 0.00 0.00 73 1015.5
20260505174006 53 18 0.9 3.5 0.00 0.00 0.00 73 1015.6
20260505173506 53 25 0.9 3.5 0.00 0.00 0.00 73 1015.6
20260505173006 53 32 0.9 3.5 0.00 0.00 0.00 73 1015.6
20260505172506 53 32 0.9 3.5 0.00 0.00 0.00 73 1015.5
20260505172006 53 30 0.9 3.5 0.00 0.00 0.00 74 1015.5
20260505171506 53 20 0.0 3.5 0.00 0.00 0.00 73 1015.5
20260505170005 54 0 0.0 0.0 0.00 0.00 0.00 73 1015.7
20260505165505 54 0 0.0 0.0 0.00 0.00 0.00 71 1015.7
20260505165006 54 0 0.0 0.0 0.00 0.00 0.00 71 1015.8
20260505164505 54 0 0.0 0.0 0.00 0.00 0.00 70 1015.9
20260505164005 54 0 0.0 0.0 0.00 0.00 0.00 71 1015.8
20260505163007 55 0 0.0 0.0 0.00 0.00 0.00 69 1015.8
20260505162505 55 0 0.0 0.0 0.00 0.00 0.00 68 1015.9
20260505162006 56 0 0.0 0.0 0.00 0.00 0.00 67 1015.9
20260505161505 56 0 0.0 0.0 0.00 0.00 0.00 67 1015.9
20260505161006 56 0 0.0 0.0 0.00 0.00 0.00 68 1015.9
20260505160505 55 0 0.0 0.0 0.00 0.00 0.00 70 1015.9
20260505153006 53 0 0.0 0.0 0.00 0.00 0.00 72 1015.9
20260505152505 53 0 0.0 0.0 0.00 0.00 0.00 70 1016.1
20260505152006 53 0 0.0 0.0 0.00 0.00 0.00 71 1016.0
20260505151006 53 0 0.0 0.0 0.00 0.00 0.00 74 1016.2
20260505150504 53 0 0.0 0.0 0.00 0.00 0.00 75 1016.1
20260505140505 57 278 0.0 3.5 0.00 0.00 0.00 68 1016.1
20260505124505 54 0 0.0 0.0 0.00 0.00 0.00 76 1016.3
20260505124006 54 283 0.0 0.9 0.00 0.00 0.00 75 1016.3
20260505123505 55 282 0.0 6.1 0.00 0.00 0.00 74 1016.3
20260505122505 56 270 0.9 6.1 0.00 0.00 0.00 70 1016.3
20260505122005 57 261 1.7 4.3 0.00 0.00 0.00 69 1016.1
20260505121505 58 255 0.9 4.3 0.00 0.00 0.00 69 1016.2
20260505121006 58 283 0.0 2.6 0.00 0.00 0.00 75 1016.2
20260505120505 57 273 1.7 6.1 0.00 0.00 0.00 74 1016.3
20260505115505 56 301 0.0 2.6 0.00 0.00 0.00 71 1016.4
20260505114505 55 27 0.9 5.2 0.00 0.00 0.00 71 1016.6
20260505114006 55 36 0.0 2.6 0.00 0.00 0.00 71 1016.7
20260505113006 54 32 0.9 4.3 0.00 0.00 0.00 72 1016.6
20260505112006 54 34 0.9 4.3 0.00 0.00 0.00 72 1016.7
20260505111505 54 0 0.0 0.0 0.00 0.00 0.00 71 1016.8
20260505111006 54 0 0.0 0.0 0.00 0.00 0.00 72 1016.8
20260505110505 53 4 0.9 3.5 0.00 0.00 0.00 73 1016.8
20260505102006 52 289 0.0 1.7 0.00 0.00 0.00 77 1016.8
20260505100504 52 280 0.9 3.5 0.00 0.00 0.00 78 1016.8
20260505100005 52 272 0.9 2.6 0.00 0.00 0.00 77 1016.8
20260505095505 52 270 0.9 3.5 0.00 0.00 0.00 78 1016.7
20260505095007 52 275 0.9 3.5 0.00 0.00 0.00 81 1016.7
20260505094505 52 280 1.7 5.2 0.00 0.00 0.00 80 1016.7
20260505094006 52 283 1.7 5.2 0.00 0.00 0.00 79 1016.7
20260505093504 52 293 0.9 5.2 0.00 0.00 0.00 79 1016.7
20260505092504 52 15 0.0 1.7 0.00 0.00 0.00 79 1016.7
20260505092005 52 35 0.0 1.7 0.00 0.00 0.00 79 1016.7
20260505091504 52 4 0.0 1.7 0.00 0.00 0.00 79 1016.8
20260505091007 52 280 0.0 1.7 0.00 0.00 0.00 81 1016.8
20260505090505 52 280 0.0 0.9 0.00 0.00 0.00 81 1016.7
20260505085504 51 279 0.0 1.7 0.00 0.00 0.00 81 1016.8
20260505085005 51 279 0.0 1.7 0.00 0.00 0.00 83 1016.8
20260505084505 51 279 0.0 1.7 0.00 0.00 0.00 82 1016.9
20260505084005 51 279 0.0 1.7 0.00 0.00 0.00 84 1016.8
20260505083504 50 279 0.0 2.6 0.00 0.00 0.00 84 1016.8
20260505083005 50 279 0.0 2.6 0.00 0.00 0.00 85 1016.8
20260505082006 49 279 0.9 1.7 0.00 0.00 0.00 85 1016.8
20260505081504 49 279 0.9 1.7 0.00 0.00 0.00 86 1016.9
20260505081005 49 278 0.9 2.6 0.00 0.00 0.00 86 1016.9
20260505080505 49 278 0.9 2.6 0.00 0.00 0.00 86 1016.8
20260505080005 49 279 0.0 1.7 0.00 0.00 0.00 87 1016.9
20260505075504 49 278 0.9 2.6 0.00 0.00 0.00 87 1017.0
20260505075005 49 280 0.9 2.6 0.00 0.00 0.00 87 1016.9
20260505074504 49 281 0.9 2.6 0.00 0.00 0.00 87 1016.9
20260505074006 48 285 0.0 2.6 0.00 0.00 0.00 87 1016.9
20260505073504 48 291 0.9 2.6 0.00 0.00 0.00 88 1017.0
20260505072005 48 325 0.0 1.7 0.00 0.00 0.00 88 1017.0
20260505071006 48 356 0.0 2.6 0.00 0.00 0.00 89 1016.9
20260505070504 47 16 0.0 1.7 0.00 0.00 0.00 89 1016.9
20260505070005 47 0 0.0 0.0 0.00 0.00 0.00 89 1016.9
20260505065504 47 0 0.0 0.0 0.00 0.00 0.00 89 1016.9
20260505065006 47 0 0.0 0.0 0.00 0.00 0.00 89 1016.9
20260505064504 46 0 0.0 0.0 0.00 0.00 0.00 89 1016.9
20260505063504 46 0 0.0 0.0 0.00 0.00 0.00 89 1017.0
20260505062504 46 0 0.0 0.0 0.00 0.00 0.00 89 1017.0
20260505062005 46 0 0.0 0.0 0.00 0.00 0.00 89 1016.9
20260505061504 45 0 0.0 0.0 0.00 0.00 0.00 89 1016.8
20260505061005 45 38 0.0 1.7 0.00 0.00 0.00 90 1016.9
20260505060504 45 38 0.0 1.7 0.00 0.00 0.00 90 1016.7
20260505060005 45 0 0.0 0.0 0.00 0.00 0.00 90 1016.7
20260505055504 45 0 0.0 0.0 0.00 0.00 0.00 90 1016.8
20260505055005 45 0 0.0 0.0 0.00 0.00 0.00 90 1016.7
20260505054504 45 0 0.0 0.0 0.00 0.00 0.00 90 1016.7
20260505054005 44 0 0.0 0.0 0.00 0.00 0.00 90 1016.6
20260505053504 44 0 0.0 0.0 0.00 0.00 0.00 90 1016.6
20260505053005 44 0 0.0 0.0 0.00 0.00 0.00 90 1016.6
20260505052505 44 0 0.0 0.0 0.00 0.00 0.00 90 1016.7
20260505052005 44 0 0.0 0.0 0.00 0.00 0.00 90 1016.7